Weather History for Point Mugu, CA

Change the Weather History Date:

Monday, March 18, 2013

  Actual Average Record
Temperature  
Mean Temperature 54 °F -  
Max Temperature 60 °F 61 °F 70 °F (2014)
Min Temperature 48 °F 45 °F 36 °F (2002)
Degree Days  
Heating Degree Days 11    
Growing Degree Days 4 (Base 50)    
Moisture  
Dew Point 50 °F    
Average Humidity 77    
Maximum Humidity 90    
Minimum Humidity 68    
Precipitation  
Precipitation 0.00 in - - ()
Sea Level Pressure  
Sea Level Pressure 30.05 in    
Wind  
Wind Speed 4 mph (NNW)    
Max Wind Speed 9 mph    
Max Gust Speed -    
Visibility 5 miles    
Events      
Averages and records for this station are not official NWS values.
T = Trace of Precipitation, MM = Missing Value Source: NWS Daily Summary

Daily Weather History Graph

Daily Weather History Graph

Search for Another Location

Airport:

Trip Planner

Search our weather history database for the weather conditions in past years. The results will help you decide how hot, cold, wet, or windy it might be!

Date:

Astronomy

Mar. 18, 2013 Rise Set
Actual Time 7:02 AM PDT 7:06 PM PDT
Civil Twilight 6:37 AM PDT 7:31 PM PDT
Nautical Twilight 6:08 AM PDT 8:01 PM PDT
Astronomical Twilight 5:39 AM PDT 8:30 PM PDT
Moon 11:20 AM PDT (3/18) 12:55 AM PDT (3/18)
Length of Visible Light 12h 54m
Length of Day
12h 04m
Waxing Crescent, 41% of the Moon is Illuminated
Mar 18
Waxing Crescent
Mar 19
First Quarter
Mar 27
Full
Apr 2
Last Quarter
Apr 10
New

Hourly Weather History & Observations

Time (PDT) Temp. Dew Point Humidity Pressure Visibility Wind Dir Wind Speed Gust Speed Precip Events Conditions
12:54 AM - - N/A% 30.01 in - North - - N/A   Partly Cloudy
1:54 AM - - N/A% 30.01 in - ENE 3.5 mph - N/A   Clear
2:54 AM - - N/A% 30.02 in - Calm Calm - N/A   Clear
3:54 AM - - N/A% 30.00 in - NE 3.5 mph - N/A   Clear
4:27 AM - - N/A% 29.99 in - NE 4.6 mph - N/A   Mostly Cloudy
4:44 AM - - N/A% 29.99 in - NNE 4.6 mph - N/A   Scattered Clouds
4:54 AM - - N/A% 30.00 in - NNE 3.5 mph - N/A   Partly Cloudy
5:54 AM 48.4 °F 43.7 °F 84% 30.02 in 5.0 mi NNE 3.5 mph - N/A   Overcast
6:54 AM 50.9 °F 47.1 °F 87% 30.04 in 5.0 mi ENE 3.5 mph - N/A   Mostly Cloudy
8:22 AM 51.8 °F 46.4 °F 82% 30.06 in 4.0 mi NE 4.6 mph - N/A   Overcast
8:54 AM 54.1 °F 49.5 °F 84% 30.07 in 4.0 mi NE 4.6 mph - N/A   Overcast
9:54 AM 56.5 °F 50.2 °F 79% 30.09 in 4.0 mi NE 5.8 mph - N/A   Haze
10:54 AM 58.5 °F 49.8 °F 73% 30.09 in 5.0 mi NE 3.5 mph - N/A   Haze
11:54 AM 60.4 °F 50.4 °F 69% 30.09 in 5.0 mi WSW 3.5 mph - N/A   Haze
12:54 PM 60.3 °F 51.1 °F 72% 30.09 in 6.0 mi SW 9.2 mph - N/A   Haze
1:54 PM 60.3 °F 50.7 °F 71% 30.08 in 6.0 mi West 8.1 mph - N/A   Haze
2:36 PM 60.8 °F 50.0 °F 68% 30.05 in 5.0 mi Variable 5.8 mph - N/A   Haze
2:54 PM 60.1 °F 50.2 °F 70% 30.04 in 5.0 mi SW 3.5 mph - N/A   Haze
3:54 PM 59.7 °F 49.8 °F 70% 30.04 in 5.0 mi SW 5.8 mph - N/A   Haze
4:54 PM 60.1 °F 50.2 °F 70% 30.03 in 5.0 mi SSW 4.6 mph - N/A   Haze
5:54 PM 59.4 °F 50.9 °F 74% 30.05 in 5.0 mi WSW 8.1 mph - N/A   Haze
6:54 PM 58.6 °F 52.0 °F 79% 30.05 in 5.0 mi West 6.9 mph - N/A   Overcast
7:54 PM 57.2 °F 52.0 °F 83% 30.06 in 5.0 mi West 3.5 mph - N/A   Overcast
8:54 PM 57.2 °F 51.3 °F 81% 30.07 in 5.0 mi Calm Calm - N/A   Mostly Cloudy
9:54 PM 57.0 °F 51.1 °F 81% 30.06 in 5.0 mi NE 3.5 mph - N/A   Mostly Cloudy
10:54 PM 55.9 °F 53.1 °F 90% 30.08 in 6.0 mi West 5.8 mph - N/A   Mostly Cloudy
11:54 PM - - N/A% 30.09 in - West 4.6 mph - N/A   Clear